Showing default

BB3, 57760

Orbit data source: Space-Track

BB3, 57760 is a payload satellite owned by SDA (US) in LEO that was launched on Sat, 02 Sep 2023 UTC via an FALCON 9 launch vehicle from the Air Force Western Test Range (AFWTR). Payload-class satellites include a variety of spacecraft equipped with specific instruments for various scientific and technological missions. These include communications satellites like Starlink; space stations such as the ISS; scientific satellites like the Hubble; Earth observation satellites from companies like Planet Labs, Umbra, and HawkEye 360; GPS; miniature CubeSats for education and research; and military/defense satellites.

Loading next visibility...
Identifier
57760, 2023-133D
Orbit
LEO
Country
Flag of USUS
Related business
Manufacturer
SPX/LEIDOS
Mission
Operational Defense Early Warn
Bus & Motor
STARSHIELD?, Unknown motor
Mass
~800 kg wet, ~800 kg dry
Launch date (UTC)
2023-09-02 (2 years ago)
Launch vehicle
FALCON 9
Launch site
Air Force Western Test Range (AFWTR)
Object type
Payload
Rocket body
Debris
Shape & HBR
Box + 1 Pan, 4.5 m
Radar Cross Section
12.397 m², Large (>1 m²)

Expand to show TLE details & history
Last TLE update: 10 hours ago

TLE from 10 hours ago
0 BB3
1 57760U 23133D   25346.97706335  .00000208  00000-0  10665-3 0  9998
2 57760  80.9970 183.2097 0078627 127.9432 232.8879 14.10603837115412
Epoch: 2025-12-12T23:26Z
TLE epoch observation values (Epoch: 2025-12-12T23:26:58.273Z)
Latitude
0.00003°
Longitude
109.55595°
Altitude
894.814 km
Speed
7.387 km/s
True Right ascension
12h 12m 50s
True Declination
0° 00' 00"
Sunlit
Object was in daylight at epoch
Visualization orbit readout
Latitude
Unknown
Longitude
Unknown
Altitude
Unknown
Speed
Unknown
Apparent Right ascension
Unknown
Apparent Declination
Unknown
Sunlit
N/A
Visualization observer readout
Local Sidereal Time
07:31:23
Azimuth
Unknown
Elevation
Unknown
Doppler factor
Unknown
Orbital elements
Apogee altitude
911.359 km
Perigee altitude
797.623 km
Semi-major axis
7,232.628 km
Eccentricity
0.00786
Inclination
80.997°
RAAN
183.2097°
Arg. of periapsis
127.9432°
True anomaly
232.17365°
Mean anomaly
232.8879°
Eccentric anomaly
232.53035°
Mean motion
3.52857 °/min
Orbital period
102.02 mins
BSTAR
0.00010665
Loading maneuver chart data...
Computing Atmospheric mass density...
Loading historical data...
Loading historical data...
Loading historical data...
Loading historical data...
Loading historical data...
Loading historical data...
Loading historical data...

Documentation

Showing up to 5 results
|